Year,Month,Day,Hour,Minute,Value (Times are PST for temperature in C)
2022,04,26,00,00,7.10
2022,04,26,00,01,7.10
2022,04,26,00,02,7.10
2022,04,26,00,03,7.10
2022,04,26,00,04,7.00
2022,04,26,00,05,7.00
2022,04,26,00,06,7.00
2022,04,26,00,07,7.00
2022,04,26,00,08,6.90
2022,04,26,00,09,6.90
2022,04,26,00,10,6.90
2022,04,26,00,11,6.90
2022,04,26,00,12,6.80
2022,04,26,00,13,6.80
2022,04,26,00,14,6.80
2022,04,26,00,15,6.80
2022,04,26,00,16,6.80
2022,04,26,00,17,6.70
2022,04,26,00,18,6.70
2022,04,26,00,19,6.70
2022,04,26,00,20,6.70
2022,04,26,00,21,6.70
2022,04,26,00,22,6.70
2022,04,26,00,23,6.70
2022,04,26,00,24,6.60
2022,04,26,00,25,6.60
2022,04,26,00,26,6.60
2022,04,26,00,27,6.60
2022,04,26,00,28,6.60
2022,04,26,00,29,6.60
2022,04,26,00,30,6.60
2022,04,26,00,31,6.50
2022,04,26,00,32,6.50
2022,04,26,00,33,6.50
2022,04,26,00,34,6.40
2022,04,26,00,35,6.40
2022,04,26,00,36,6.40
2022,04,26,00,37,6.40
2022,04,26,00,38,6.40
2022,04,26,00,39,6.40
2022,04,26,00,40,6.30
2022,04,26,00,41,6.30
2022,04,26,00,42,6.30
2022,04,26,00,43,6.30
2022,04,26,00,44,6.30
2022,04,26,00,45,6.30
2022,04,26,00,46,6.20
2022,04,26,00,47,6.20
2022,04,26,00,48,6.20
2022,04,26,00,49,6.20
2022,04,26,00,50,6.20
2022,04,26,00,51,6.10
2022,04,26,00,52,6.10
2022,04,26,00,53,6.10
2022,04,26,00,54,6.10
2022,04,26,00,55,6.00
2022,04,26,00,56,6.00
2022,04,26,00,57,5.90
2022,04,26,00,58,5.90
2022,04,26,00,59,5.90
2022,04,26,01,00,5.90
2022,04,26,01,01,5.80
2022,04,26,01,02,5.80
2022,04,26,01,03,5.80
2022,04,26,01,04,5.80
2022,04,26,01,05,5.70
2022,04,26,01,06,5.70
2022,04,26,01,07,5.70
2022,04,26,01,08,5.60
2022,04,26,01,09,5.60
2022,04,26,01,10,5.60
2022,04,26,01,11,5.60
2022,04,26,01,12,5.50
2022,04,26,01,13,5.50
2022,04,26,01,14,5.40
2022,04,26,01,15,5.40
2022,04,26,01,16,5.40
2022,04,26,01,17,5.30
2022,04,26,01,18,5.30
2022,04,26,01,19,5.30
2022,04,26,01,20,5.20
2022,04,26,01,21,5.20
2022,04,26,01,22,5.20
2022,04,26,01,23,5.10
2022,04,26,01,24,5.10
2022,04,26,01,25,5.10
2022,04,26,01,26,5.00
2022,04,26,01,27,5.00
2022,04,26,01,28,5.00
2022,04,26,01,29,5.00
2022,04,26,01,30,5.00
2022,04,26,01,31,5.00
2022,04,26,01,32,5.00
2022,04,26,01,33,5.00
2022,04,26,01,34,5.00
2022,04,26,01,35,5.00
2022,04,26,01,36,5.00
2022,04,26,01,37,5.00
2022,04,26,01,38,5.00
2022,04,26,01,39,4.90
2022,04,26,01,40,4.90
2022,04,26,01,41,4.90
2022,04,26,01,42,4.90
2022,04,26,01,43,4.90
2022,04,26,01,44,4.90
2022,04,26,01,45,4.80
2022,04,26,01,46,4.80
2022,04,26,01,47,4.80
2022,04,26,01,48,4.80
2022,04,26,01,49,4.80
2022,04,26,01,50,4.70
2022,04,26,01,51,4.70
2022,04,26,01,52,4.70
2022,04,26,01,53,4.70
2022,04,26,01,54,4.70
2022,04,26,01,55,4.70
2022,04,26,01,56,4.70
2022,04,26,01,57,4.70
2022,04,26,01,58,4.70
2022,04,26,01,59,4.70
2022,04,26,02,00,4.70
2022,04,26,02,01,4.70
2022,04,26,02,02,4.70
2022,04,26,02,03,4.70
2022,04,26,02,04,4.70
2022,04,26,02,05,4.70
2022,04,26,02,06,4.70
2022,04,26,02,07,4.70
2022,04,26,02,08,4.70
2022,04,26,02,09,4.70
2022,04,26,02,10,4.70
2022,04,26,02,11,4.70
2022,04,26,02,12,4.70
2022,04,26,02,13,4.70
2022,04,26,02,14,4.70
2022,04,26,02,15,4.70
2022,04,26,02,16,4.70
2022,04,26,02,17,4.70
2022,04,26,02,18,4.60
2022,04,26,02,19,4.60
2022,04,26,02,20,4.60
2022,04,26,02,21,4.60
2022,04,26,02,22,4.60
2022,04,26,02,23,4.60
2022,04,26,02,24,4.60
2022,04,26,02,25,4.60
2022,04,26,02,26,4.50
2022,04,26,02,27,4.50
2022,04,26,02,28,4.50
2022,04,26,02,29,4.50
2022,04,26,02,30,4.40
2022,04,26,02,31,4.40
2022,04,26,02,32,4.40
2022,04,26,02,33,4.30
2022,04,26,02,34,4.30
2022,04,26,02,35,4.30
2022,04,26,02,36,4.30
2022,04,26,02,37,4.30
2022,04,26,02,38,4.20
2022,04,26,02,39,4.20
2022,04,26,02,40,4.20
2022,04,26,02,41,4.20
2022,04,26,02,42,4.10
2022,04,26,02,43,4.10
2022,04,26,02,44,4.10
2022,04,26,02,45,4.10
2022,04,26,02,46,4.10
2022,04,26,02,47,4.10
2022,04,26,02,48,4.00
2022,04,26,02,49,4.00
2022,04,26,02,50,4.00
2022,04,26,02,51,4.00
2022,04,26,02,52,3.90
2022,04,26,02,53,3.90
2022,04,26,02,54,3.90
2022,04,26,02,55,3.90
2022,04,26,02,56,3.90
2022,04,26,02,57,3.90
2022,04,26,02,58,3.90
2022,04,26,02,59,3.90
2022,04,26,03,00,3.90
2022,04,26,03,01,3.90
2022,04,26,03,02,3.90
2022,04,26,03,03,3.90
2022,04,26,03,04,3.90
2022,04,26,03,05,3.90
2022,04,26,03,06,4.00
2022,04,26,03,07,4.00
2022,04,26,03,08,4.00
2022,04,26,03,09,4.10
2022,04,26,03,10,4.10
2022,04,26,03,11,4.10
2022,04,26,03,12,4.10
2022,04,26,03,13,4.10
2022,04,26,03,14,4.10
2022,04,26,03,15,4.10
2022,04,26,03,16,4.10
2022,04,26,03,17,4.20
2022,04,26,03,18,4.10
2022,04,26,03,19,4.20
2022,04,26,03,20,4.10
2022,04,26,03,21,4.20
2022,04,26,03,22,4.20
2022,04,26,03,23,4.20
2022,04,26,03,24,4.20
2022,04,26,03,25,4.20
2022,04,26,03,26,4.20
2022,04,26,03,27,4.20
2022,04,26,03,28,4.30
2022,04,26,03,29,4.30
2022,04,26,03,30,4.20
2022,04,26,03,31,4.20
2022,04,26,03,32,4.20
2022,04,26,03,33,4.20
2022,04,26,03,34,4.20
2022,04,26,03,35,4.30
2022,04,26,03,36,4.30
2022,04,26,03,37,4.30
2022,04,26,03,38,4.30
2022,04,26,03,39,4.30
2022,04,26,03,40,4.30
2022,04,26,03,41,4.30
2022,04,26,03,42,4.20
2022,04,26,03,43,4.20
2022,04,26,03,44,4.20
2022,04,26,03,45,4.20
2022,04,26,03,46,4.20
2022,04,26,03,47,4.10
2022,04,26,03,48,4.10
2022,04,26,03,49,4.10
2022,04,26,03,50,4.10
2022,04,26,03,51,4.10
2022,04,26,03,52,4.10
2022,04,26,03,53,4.10
2022,04,26,03,54,4.10
2022,04,26,03,55,4.10
2022,04,26,03,56,4.10
2022,04,26,03,57,4.10
2022,04,26,03,58,4.10
2022,04,26,03,59,4.00
2022,04,26,04,00,4.00
2022,04,26,04,01,4.00
2022,04,26,04,02,4.00
2022,04,26,04,03,4.00
2022,04,26,04,04,3.90
2022,04,26,04,05,3.90
2022,04,26,04,06,3.90
2022,04,26,04,07,3.90
2022,04,26,04,08,3.90
2022,04,26,04,09,3.90
2022,04,26,04,10,3.90
2022,04,26,04,11,3.90
2022,04,26,04,12,3.90
2022,04,26,04,13,3.90
2022,04,26,04,14,3.90
2022,04,26,04,15,3.90
2022,04,26,04,16,3.90
2022,04,26,04,17,3.90
2022,04,26,04,18,3.80
2022,04,26,04,19,3.80
2022,04,26,04,20,3.80
2022,04,26,04,21,3.80
2022,04,26,04,22,3.80
2022,04,26,04,23,3.80
2022,04,26,04,24,3.80
2022,04,26,04,25,3.80
2022,04,26,04,26,3.80
2022,04,26,04,27,3.70
2022,04,26,04,28,3.70
2022,04,26,04,29,3.70
2022,04,26,04,30,3.70
2022,04,26,04,31,3.70
2022,04,26,04,32,3.60
2022,04,26,04,33,3.60
2022,04,26,04,34,3.70
2022,04,26,04,35,3.70
2022,04,26,04,36,3.70
2022,04,26,04,37,3.80
2022,04,26,04,38,3.80
2022,04,26,04,39,3.80
2022,04,26,04,40,3.80
2022,04,26,04,41,3.80
2022,04,26,04,42,3.80
2022,04,26,04,43,3.80
2022,04,26,04,44,3.80
2022,04,26,04,45,3.80
2022,04,26,04,46,3.80
2022,04,26,04,47,3.80
2022,04,26,04,48,3.80
2022,04,26,04,49,3.70
2022,04,26,04,50,3.70
2022,04,26,04,51,3.70
2022,04,26,04,52,3.70
2022,04,26,04,53,3.70
2022,04,26,04,54,3.70
2022,04,26,04,55,3.70
2022,04,26,04,56,3.70
2022,04,26,04,57,3.70
2022,04,26,04,58,3.70
2022,04,26,04,59,3.70
2022,04,26,05,00,3.80
2022,04,26,05,01,3.80
2022,04,26,05,02,3.80
2022,04,26,05,03,3.80
2022,04,26,05,04,3.80
2022,04,26,05,05,3.90
2022,04,26,05,06,3.90
2022,04,26,05,07,3.90
2022,04,26,05,08,3.90
2022,04,26,05,09,4.00
2022,04,26,05,10,4.00
2022,04,26,05,11,4.10
2022,04,26,05,12,4.10
2022,04,26,05,13,4.20
2022,04,26,05,14,4.20
2022,04,26,05,15,4.20
2022,04,26,05,16,4.30
2022,04,26,05,17,4.40
2022,04,26,05,18,4.40
2022,04,26,05,19,4.50
2022,04,26,05,20,4.50
2022,04,26,05,21,4.60
2022,04,26,05,22,4.60
2022,04,26,05,23,4.60
2022,04,26,05,24,4.60
2022,04,26,05,25,4.60
2022,04,26,05,26,4.60
2022,04,26,05,27,4.60
2022,04,26,05,28,4.60
2022,04,26,05,29,4.60
2022,04,26,05,30,4.60
2022,04,26,05,31,4.60
2022,04,26,05,32,4.60
2022,04,26,05,33,4.60
2022,04,26,05,34,4.70
2022,04,26,05,35,4.70
2022,04,26,05,36,4.70
2022,04,26,05,37,4.70
2022,04,26,05,38,4.70
2022,04,26,05,39,4.80
2022,04,26,05,40,4.80
2022,04,26,05,41,4.90
2022,04,26,05,42,4.90
2022,04,26,05,43,4.90
2022,04,26,05,44,4.90
2022,04,26,05,45,5.00
2022,04,26,05,46,5.00
2022,04,26,05,47,5.00
2022,04,26,05,48,5.10
2022,04,26,05,49,5.10
2022,04,26,05,50,5.10
2022,04,26,05,51,5.10
2022,04,26,05,52,5.10
2022,04,26,05,53,5.20
2022,04,26,05,54,5.20
2022,04,26,05,55,5.20
2022,04,26,05,56,5.30
2022,04,26,05,57,5.30
2022,04,26,05,58,5.30
2022,04,26,05,59,5.40
2022,04,26,06,00,5.40
2022,04,26,06,01,5.40
2022,04,26,06,02,5.40
2022,04,26,06,03,5.50
2022,04,26,06,04,5.50
2022,04,26,06,05,5.50
2022,04,26,06,06,5.60
2022,04,26,06,07,5.60
2022,04,26,06,08,5.60
2022,04,26,06,09,5.70
2022,04,26,06,10,5.70
2022,04,26,06,11,5.70
2022,04,26,06,12,5.80
2022,04,26,06,13,5.80
2022,04,26,06,14,5.80
2022,04,26,06,15,5.80
2022,04,26,06,16,5.90
2022,04,26,06,17,5.90
2022,04,26,06,18,5.90
2022,04,26,06,19,5.90
2022,04,26,06,20,5.90
2022,04,26,06,21,5.90
2022,04,26,06,22,5.90
2022,04,26,06,23,6.00
2022,04,26,06,24,6.00
2022,04,26,06,25,6.00
2022,04,26,06,26,6.00
2022,04,26,06,27,6.10
2022,04,26,06,28,6.10
2022,04,26,06,29,6.10
2022,04,26,06,30,6.10
2022,04,26,06,31,6.10
2022,04,26,06,32,6.10
2022,04,26,06,33,6.10
2022,04,26,06,34,6.10
2022,04,26,06,35,6.20
2022,04,26,06,36,6.20
2022,04,26,06,37,6.20
2022,04,26,06,38,6.20
2022,04,26,06,39,6.20
2022,04,26,06,40,6.20
2022,04,26,06,41,6.30
2022,04,26,06,42,6.30
2022,04,26,06,43,6.30
2022,04,26,06,44,6.30
2022,04,26,06,45,6.40
2022,04,26,06,46,6.40
2022,04,26,06,47,6.40
2022,04,26,06,48,6.40
2022,04,26,06,49,6.40
2022,04,26,06,50,6.40
2022,04,26,06,51,6.40
2022,04,26,06,52,6.50
2022,04,26,06,53,6.50
2022,04,26,06,54,6.50
2022,04,26,06,55,6.50
2022,04,26,06,56,6.60
2022,04,26,06,57,6.60
2022,04,26,06,58,6.60
2022,04,26,06,59,6.60
2022,04,26,07,00,6.60
2022,04,26,07,01,6.60
2022,04,26,07,02,6.70
2022,04,26,07,03,6.70
2022,04,26,07,04,6.70
2022,04,26,07,05,6.70
2022,04,26,07,06,6.70
2022,04,26,07,07,6.70
2022,04,26,07,08,6.70
2022,04,26,07,09,6.70
2022,04,26,07,10,6.70
2022,04,26,07,11,6.70
2022,04,26,07,12,6.80
2022,04,26,07,13,6.80
2022,04,26,07,14,6.80
2022,04,26,07,15,6.80
2022,04,26,07,16,6.80
2022,04,26,07,17,6.80
2022,04,26,07,18,6.80
2022,04,26,07,19,6.90
2022,04,26,07,20,6.90
2022,04,26,07,21,6.90
2022,04,26,07,22,6.90
2022,04,26,07,23,6.90
2022,04,26,07,24,7.00
2022,04,26,07,25,7.00
2022,04,26,07,26,7.00
2022,04,26,07,27,7.10
2022,04,26,07,28,7.10
2022,04,26,07,29,7.10
2022,04,26,07,30,7.20
2022,04,26,07,31,7.20
2022,04,26,07,32,7.20
2022,04,26,07,33,7.30
2022,04,26,07,34,7.30
2022,04,26,07,35,7.30
2022,04,26,07,36,7.40
2022,04,26,07,37,7.40
2022,04,26,07,38,7.40
2022,04,26,07,39,7.40
2022,04,26,07,40,7.40
2022,04,26,07,41,7.40
2022,04,26,07,42,7.40
2022,04,26,07,43,7.40
2022,04,26,07,44,7.40
2022,04,26,07,45,7.40
2022,04,26,07,46,7.40
2022,04,26,07,47,7.40
2022,04,26,07,48,7.40
2022,04,26,07,49,7.40
2022,04,26,07,50,7.40
2022,04,26,07,51,7.50
2022,04,26,07,52,7.50
2022,04,26,07,53,7.40
2022,04,26,07,54,7.40
2022,04,26,07,55,7.40
2022,04,26,07,56,7.50
2022,04,26,07,57,7.50
2022,04,26,07,58,7.50
2022,04,26,07,59,7.50
2022,04,26,08,00,7.50
2022,04,26,08,01,7.50
2022,04,26,08,02,7.60
2022,04,26,08,03,7.60
2022,04,26,08,04,7.60
2022,04,26,08,05,7.60
2022,04,26,08,06,7.60
2022,04,26,08,07,7.60
2022,04,26,08,08,7.60
2022,04,26,08,09,7.60
2022,04,26,08,10,7.60
2022,04,26,08,11,7.60
2022,04,26,08,12,7.60
2022,04,26,08,13,7.60
2022,04,26,08,14,7.60
2022,04,26,08,15,7.60
2022,04,26,08,16,7.60
2022,04,26,08,17,7.60
2022,04,26,08,18,7.60
2022,04,26,08,19,7.70
2022,04,26,08,20,7.60
2022,04,26,08,21,7.60
2022,04,26,08,22,7.60
2022,04,26,08,23,7.60
2022,04,26,08,24,7.60
2022,04,26,08,25,7.60
2022,04,26,08,26,7.60
2022,04,26,08,27,7.60
2022,04,26,08,28,7.60
2022,04,26,08,29,7.60
2022,04,26,08,30,7.60
2022,04,26,08,31,7.70
2022,04,26,08,32,7.70
2022,04,26,08,33,7.70
2022,04,26,08,34,7.70
2022,04,26,08,35,7.70
2022,04,26,08,36,7.80
2022,04,26,08,37,7.80
2022,04,26,08,38,7.80
2022,04,26,08,39,7.70
2022,04,26,08,40,7.70
2022,04,26,08,41,7.80
2022,04,26,08,42,7.80
2022,04,26,08,43,7.80
2022,04,26,08,44,7.80
2022,04,26,08,45,7.80
2022,04,26,08,46,7.90
2022,04,26,08,47,7.90
2022,04,26,08,48,7.90
2022,04,26,08,49,7.90
2022,04,26,08,50,7.90
2022,04,26,08,51,8.00
2022,04,26,08,52,8.00
2022,04,26,08,53,8.00
2022,04,26,08,54,8.00
2022,04,26,08,55,8.00
2022,04,26,08,56,8.00
2022,04,26,08,57,7.90
2022,04,26,08,58,7.90
2022,04,26,08,59,7.90
2022,04,26,09,00,7.90
2022,04,26,09,01,7.90
2022,04,26,09,02,7.90
2022,04,26,09,03,7.90
2022,04,26,09,04,7.90
2022,04,26,09,05,7.90
2022,04,26,09,06,7.90
2022,04,26,09,07,7.90
2022,04,26,09,08,7.90
2022,04,26,09,09,7.90
2022,04,26,09,10,7.90
2022,04,26,09,11,7.90
2022,04,26,09,12,7.90
2022,04,26,09,13,7.90
2022,04,26,09,14,7.90
2022,04,26,09,15,7.80
2022,04,26,09,16,7.80
2022,04,26,09,17,7.80
2022,04,26,09,18,7.80
2022,04,26,09,19,7.80
2022,04,26,09,20,7.80
2022,04,26,09,21,7.90
2022,04,26,09,22,7.90
2022,04,26,09,23,7.90
2022,04,26,09,24,7.90
2022,04,26,09,25,8.00
2022,04,26,09,26,8.00
2022,04,26,09,27,8.10
2022,04,26,09,28,8.10
2022,04,26,09,29,8.00
2022,04,26,09,30,8.00
2022,04,26,09,31,8.00
2022,04,26,09,32,8.00
2022,04,26,09,33,8.10
2022,04,26,09,34,8.10
2022,04,26,09,35,8.10
2022,04,26,09,36,8.10
2022,04,26,09,37,8.10
2022,04,26,09,38,8.10
2022,04,26,09,39,8.10
2022,04,26,09,40,8.10
2022,04,26,09,41,8.10
2022,04,26,09,42,8.10
2022,04,26,09,43,8.10
2022,04,26,09,44,8.10
2022,04,26,09,45,8.10
2022,04,26,09,46,8.10
2022,04,26,09,47,8.10
2022,04,26,09,48,8.10
2022,04,26,09,49,8.10
2022,04,26,09,50,8.20
2022,04,26,09,51,8.20
2022,04,26,09,52,8.30
2022,04,26,09,53,8.30
2022,04,26,09,54,8.30
2022,04,26,09,55,8.30
2022,04,26,09,56,8.30
2022,04,26,09,57,8.30
2022,04,26,09,58,8.30
2022,04,26,09,59,8.30
2022,04,26,10,00,8.30
2022,04,26,10,01,8.30
2022,04,26,10,02,8.30
2022,04,26,10,03,8.30
2022,04,26,10,04,8.30
2022,04,26,10,05,8.20
2022,04,26,10,06,8.20
2022,04,26,10,07,8.20
2022,04,26,10,08,8.10
2022,04,26,10,09,8.10
2022,04,26,10,10,8.20
2022,04,26,10,11,8.20
2022,04,26,10,12,8.20
2022,04,26,10,13,8.20
2022,04,26,10,14,8.20
2022,04,26,10,15,8.20
2022,04,26,10,16,8.20
2022,04,26,10,17,8.20
2022,04,26,10,18,8.20
2022,04,26,10,19,8.30
2022,04,26,10,20,8.30
2022,04,26,10,21,8.40
2022,04,26,10,22,8.40
2022,04,26,10,23,8.40
2022,04,26,10,24,8.40
2022,04,26,10,25,8.40
2022,04,26,10,26,8.40
2022,04,26,10,27,8.40
2022,04,26,10,28,8.40
2022,04,26,10,29,8.40
2022,04,26,10,30,8.30
2022,04,26,10,31,8.30
2022,04,26,10,32,8.40
2022,04,26,10,33,8.40
2022,04,26,10,34,8.40
2022,04,26,10,35,8.40
2022,04,26,10,36,8.40
2022,04,26,10,37,8.40
2022,04,26,10,38,8.50
2022,04,26,10,39,8.50
2022,04,26,10,40,8.60
2022,04,26,10,41,8.60
2022,04,26,10,42,8.60
2022,04,26,10,43,8.60
2022,04,26,10,44,8.70
2022,04,26,10,45,8.70
2022,04,26,10,46,8.70
2022,04,26,10,47,8.70
2022,04,26,10,48,8.60
2022,04,26,10,49,8.70
2022,04,26,10,50,8.70
2022,04,26,10,51,8.70
2022,04,26,10,52,8.70
2022,04,26,10,53,8.70
2022,04,26,10,54,8.70
2022,04,26,10,55,8.80
2022,04,26,10,56,8.80
2022,04,26,10,57,8.80
2022,04,26,10,58,8.80
2022,04,26,10,59,8.80
2022,04,26,11,00,8.80
2022,04,26,11,01,8.80
2022,04,26,11,02,8.80
2022,04,26,11,03,8.90
2022,04,26,11,04,8.90
2022,04,26,11,05,8.90
2022,04,26,11,06,8.80
2022,04,26,11,07,8.80
2022,04,26,11,08,8.90
2022,04,26,11,09,8.90
2022,04,26,11,10,8.90
2022,04,26,11,11,8.90
2022,04,26,11,12,8.80
2022,04,26,11,13,8.80
2022,04,26,11,14,8.80
2022,04,26,11,15,8.80
2022,04,26,11,16,8.70
2022,04,26,11,17,8.70
2022,04,26,11,18,8.60
2022,04,26,11,19,8.70
2022,04,26,11,20,8.80
2022,04,26,11,21,8.90
2022,04,26,11,22,8.90
2022,04,26,11,23,8.90
2022,04,26,11,24,8.90
2022,04,26,11,25,8.90
2022,04,26,11,26,9.00
2022,04,26,11,27,9.00
2022,04,26,11,28,9.00
2022,04,26,11,29,8.90
2022,04,26,11,30,8.90
2022,04,26,11,31,8.90
2022,04,26,11,32,8.90
2022,04,26,11,33,9.00
2022,04,26,11,34,9.00
2022,04,26,11,35,9.10
2022,04,26,11,36,9.10
2022,04,26,11,37,9.10
2022,04,26,11,38,9.10
2022,04,26,11,39,9.20
2022,04,26,11,40,9.20
2022,04,26,11,41,9.30
2022,04,26,11,42,9.30
2022,04,26,11,43,9.30
2022,04,26,11,44,9.30
2022,04,26,11,45,9.30
2022,04,26,11,46,9.40
2022,04,26,11,47,9.40
2022,04,26,11,48,9.40
2022,04,26,11,49,9.30
2022,04,26,11,50,9.30
2022,04,26,11,51,9.20
2022,04,26,11,52,9.20
2022,04,26,11,53,9.20
2022,04,26,11,54,9.10
2022,04,26,11,55,9.10
2022,04,26,11,56,9.10
2022,04,26,11,57,9.10
2022,04,26,11,58,9.10
2022,04,26,11,59,9.10
2022,04,26,12,00,9.10
2022,04,26,12,01,9.10
2022,04,26,12,02,9.10
2022,04,26,12,03,9.20
2022,04,26,12,04,9.20
2022,04,26,12,05,9.20
2022,04,26,12,06,9.20
2022,04,26,12,07,9.30
2022,04,26,12,08,9.30
2022,04,26,12,09,9.30
2022,04,26,12,10,9.30
2022,04,26,12,11,9.30
2022,04,26,12,12,9.30
2022,04,26,12,13,9.30
2022,04,26,12,14,9.30
2022,04,26,12,15,9.30
2022,04,26,12,16,9.40
2022,04,26,12,17,9.40
2022,04,26,12,18,9.50
2022,04,26,12,19,9.60
2022,04,26,12,20,9.70
2022,04,26,12,21,9.70
2022,04,26,12,22,9.70
2022,04,26,12,23,9.70
2022,04,26,12,24,9.70
2022,04,26,12,25,9.70
2022,04,26,12,26,9.80
2022,04,26,12,27,9.80
2022,04,26,12,28,9.70
2022,04,26,12,29,9.70
2022,04,26,12,30,9.70
2022,04,26,12,31,9.70
2022,04,26,12,32,9.70
2022,04,26,12,33,9.70
2022,04,26,12,34,9.70
2022,04,26,12,35,9.70
2022,04,26,12,36,9.70
2022,04,26,12,37,9.70
2022,04,26,12,38,9.70
2022,04,26,12,39,9.70
2022,04,26,12,40,9.70
2022,04,26,12,41,9.70
2022,04,26,12,42,9.80
2022,04,26,12,43,9.70
2022,04,26,12,44,9.70
2022,04,26,12,45,9.60
2022,04,26,12,46,9.60
2022,04,26,12,47,9.60
2022,04,26,12,48,9.70
2022,04,26,12,49,9.70
2022,04,26,12,50,9.80
2022,04,26,12,51,9.80
2022,04,26,12,52,9.80
2022,04,26,12,53,9.70
2022,04,26,12,54,9.70
2022,04,26,12,55,9.60
2022,04,26,12,56,9.60
2022,04,26,12,57,9.60
2022,04,26,12,58,9.60
2022,04,26,12,59,9.70
2022,04,26,13,00,9.70
2022,04,26,13,01,9.70
2022,04,26,13,02,9.70
2022,04,26,13,03,9.60
2022,04,26,13,04,9.60
2022,04,26,13,05,9.60
2022,04,26,13,06,9.50
2022,04,26,13,07,9.50
2022,04,26,13,08,9.40
2022,04,26,13,09,9.50
2022,04,26,13,10,9.40
2022,04,26,13,11,9.40
2022,04,26,13,12,9.40
2022,04,26,13,13,9.40
2022,04,26,13,14,9.40
2022,04,26,13,15,9.40
2022,04,26,13,16,9.50
2022,04,26,13,17,9.60
2022,04,26,13,18,9.60
2022,04,26,13,19,9.60
2022,04,26,13,20,9.60
2022,04,26,13,21,9.50
2022,04,26,13,22,9.40
2022,04,26,13,23,9.40
2022,04,26,13,24,9.30
2022,04,26,13,25,9.20
2022,04,26,13,26,9.20
2022,04,26,13,27,9.20
2022,04,26,13,28,9.30
2022,04,26,13,29,9.30
2022,04,26,13,30,9.40
2022,04,26,13,31,9.40
2022,04,26,13,32,9.50
2022,04,26,13,33,9.60
2022,04,26,13,34,9.60
2022,04,26,13,35,9.60
2022,04,26,13,36,9.60
2022,04,26,13,37,9.60
2022,04,26,13,38,9.60
2022,04,26,13,39,9.60
2022,04,26,13,40,9.60
2022,04,26,13,41,9.60
2022,04,26,13,42,9.70
2022,04,26,13,43,9.70
2022,04,26,13,44,9.70
2022,04,26,13,45,9.60
2022,04,26,13,46,9.60
2022,04,26,13,47,9.50
2022,04,26,13,48,9.50
2022,04,26,13,49,9.50
2022,04,26,13,50,9.40
2022,04,26,13,51,9.50
2022,04,26,13,52,9.50
2022,04,26,13,53,9.60
2022,04,26,13,54,9.60
2022,04,26,13,55,9.60
2022,04,26,13,56,9.60
2022,04,26,13,57,9.70
2022,04,26,13,58,9.80
2022,04,26,13,59,9.80
2022,04,26,14,00,9.80
2022,04,26,14,01,9.70
2022,04,26,14,02,9.70
2022,04,26,14,03,9.70
2022,04,26,14,04,9.60
2022,04,26,14,05,9.60
2022,04,26,14,06,9.60
2022,04,26,14,07,9.60
2022,04,26,14,08,9.60
2022,04,26,14,09,9.50
2022,04,26,14,10,9.50
2022,04,26,14,11,9.50
2022,04,26,14,12,9.50
2022,04,26,14,13,9.50
2022,04,26,14,14,9.50
2022,04,26,14,15,9.60
2022,04,26,14,16,9.70
2022,04,26,14,17,9.90
2022,04,26,14,18,10.00
2022,04,26,14,19,10.10
2022,04,26,14,20,10.20
2022,04,26,14,21,10.20
2022,04,26,14,22,10.30
2022,04,26,14,23,10.40
2022,04,26,14,24,10.30
2022,04,26,14,25,10.30
2022,04,26,14,26,10.30
2022,04,26,14,27,10.30
2022,04,26,14,28,10.20
2022,04,26,14,29,10.20
2022,04,26,14,30,10.10
2022,04,26,14,31,10.10
2022,04,26,14,32,10.20
2022,04,26,14,33,10.30
2022,04,26,14,34,10.40
2022,04,26,14,35,10.40
2022,04,26,14,36,10.40
2022,04,26,14,37,10.40
2022,04,26,14,38,10.40
2022,04,26,14,39,10.40
2022,04,26,14,40,10.40
2022,04,26,14,41,10.40
2022,04,26,14,42,10.40
2022,04,26,14,43,10.50
2022,04,26,14,44,10.60
2022,04,26,14,45,10.60
2022,04,26,14,46,10.50
2022,04,26,14,47,10.50
2022,04,26,14,48,10.50
2022,04,26,14,49,10.60
2022,04,26,14,50,10.70
2022,04,26,14,51,10.70
2022,04,26,14,52,10.70
2022,04,26,14,53,10.80
2022,04,26,14,54,10.80
2022,04,26,14,55,10.80
2022,04,26,14,56,10.80
2022,04,26,14,57,10.80
2022,04,26,14,58,10.80
2022,04,26,14,59,10.80
2022,04,26,15,00,10.80
2022,04,26,15,01,10.90
2022,04,26,15,02,10.90
2022,04,26,15,03,10.90
2022,04,26,15,04,10.90
2022,04,26,15,05,10.90
2022,04,26,15,06,10.90
2022,04,26,15,07,10.90
2022,04,26,15,08,10.90
2022,04,26,15,09,11.00
2022,04,26,15,10,11.00
2022,04,26,15,11,11.10
2022,04,26,15,12,11.20
2022,04,26,15,13,11.20
2022,04,26,15,14,11.30
2022,04,26,15,15,11.20
2022,04,26,15,16,11.20
2022,04,26,15,17,11.20
2022,04,26,15,18,11.10
2022,04,26,15,19,11.00
2022,04,26,15,20,11.00
2022,04,26,15,21,11.00
2022,04,26,15,22,11.00
2022,04,26,15,23,10.90
2022,04,26,15,24,10.90
2022,04,26,15,25,10.90
2022,04,26,15,26,10.90
2022,04,26,15,27,11.00
2022,04,26,15,28,11.00
2022,04,26,15,29,10.90
2022,04,26,15,30,10.90
2022,04,26,15,31,10.80
2022,04,26,15,32,10.80
2022,04,26,15,33,10.80
2022,04,26,15,34,10.90
2022,04,26,15,35,11.00
2022,04,26,15,36,11.00
2022,04,26,15,37,11.10
2022,04,26,15,38,11.10
2022,04,26,15,39,11.20
2022,04,26,15,40,11.20
2022,04,26,15,41,11.30
2022,04,26,15,42,11.30
2022,04,26,15,43,11.30
2022,04,26,15,44,11.30
2022,04,26,15,45,11.20
2022,04,26,15,46,11.10
2022,04,26,15,47,11.10
2022,04,26,15,48,11.10
2022,04,26,15,49,11.10
2022,04,26,15,50,11.10
2022,04,26,15,51,11.00
2022,04,26,15,52,10.90
2022,04,26,15,53,10.80
2022,04,26,15,54,10.80
2022,04,26,15,55,10.80
2022,04,26,15,56,10.70
2022,04,26,15,57,10.60
2022,04,26,15,58,10.50
2022,04,26,15,59,10.40
2022,04,26,16,00,10.40
2022,04,26,16,01,10.50
2022,04,26,16,02,10.50
2022,04,26,16,03,10.60
2022,04,26,16,04,10.60
2022,04,26,16,05,10.70
2022,04,26,16,06,10.80
2022,04,26,16,07,10.90
2022,04,26,16,08,10.90
2022,04,26,16,09,11.00
2022,04,26,16,10,11.00
2022,04,26,16,11,11.00
2022,04,26,16,12,11.00
2022,04,26,16,13,10.90
2022,04,26,16,14,10.90
2022,04,26,16,15,10.80
2022,04,26,16,16,10.70
2022,04,26,16,17,10.70
2022,04,26,16,18,10.70
2022,04,26,16,19,10.70
2022,04,26,16,20,10.70
2022,04,26,16,21,10.80
2022,04,26,16,22,10.80
2022,04,26,16,23,10.70
2022,04,26,16,24,10.60
2022,04,26,16,25,10.50
2022,04,26,16,26,10.50
2022,04,26,16,27,10.50
2022,04,26,16,28,10.50
2022,04,26,16,29,10.60
2022,04,26,16,30,10.50
2022,04,26,16,31,10.40
2022,04,26,16,32,10.40
2022,04,26,16,33,10.40
2022,04,26,16,34,10.40
2022,04,26,16,35,10.50
2022,04,26,16,36,10.50
2022,04,26,16,37,10.60
2022,04,26,16,38,10.60
2022,04,26,16,39,10.70
2022,04,26,16,40,10.70
2022,04,26,16,41,10.60
2022,04,26,16,42,10.60
2022,04,26,16,43,10.50
2022,04,26,16,44,10.40
2022,04,26,16,45,10.30
2022,04,26,16,46,10.30
2022,04,26,16,47,10.30
2022,04,26,16,48,10.30
2022,04,26,16,49,10.30
2022,04,26,16,50,10.40
2022,04,26,16,51,10.40
2022,04,26,16,52,10.40
2022,04,26,16,53,10.50
2022,04,26,16,54,10.60
2022,04,26,16,55,10.60
2022,04,26,16,56,10.60
2022,04,26,16,57,10.70
2022,04,26,16,58,10.70
2022,04,26,16,59,10.80
2022,04,26,17,00,10.80
2022,04,26,17,01,10.90
2022,04,26,17,02,10.90
2022,04,26,17,03,10.90
2022,04,26,17,04,11.00
2022,04,26,17,05,11.10
2022,04,26,17,06,11.20
2022,04,26,17,07,11.20
2022,04,26,17,08,11.10
2022,04,26,17,09,11.10
2022,04,26,17,10,11.10
2022,04,26,17,11,11.10
2022,04,26,17,12,11.10
2022,04,26,17,13,11.10
2022,04,26,17,14,11.10
2022,04,26,17,15,11.00
2022,04,26,17,16,11.00
2022,04,26,17,17,11.00
2022,04,26,17,18,10.90
2022,04,26,17,19,10.90
2022,04,26,17,20,11.00
2022,04,26,17,21,11.00
2022,04,26,17,22,11.10
2022,04,26,17,23,11.20
2022,04,26,17,24,11.20
2022,04,26,17,25,11.10
2022,04,26,17,26,11.00
2022,04,26,17,27,11.00
2022,04,26,17,28,10.90
2022,04,26,17,29,10.90
2022,04,26,17,30,10.90
2022,04,26,17,31,10.80
2022,04,26,17,32,10.80
2022,04,26,17,33,10.90
2022,04,26,17,34,10.90
2022,04,26,17,35,10.90
2022,04,26,17,36,11.00
2022,04,26,17,37,11.00
2022,04,26,17,38,11.10
2022,04,26,17,39,11.10
2022,04,26,17,40,11.10
2022,04,26,17,41,11.20
2022,04,26,17,42,11.20
2022,04,26,17,43,11.20
2022,04,26,17,44,11.30
2022,04,26,17,45,11.30
2022,04,26,17,46,11.30
2022,04,26,17,47,11.30
2022,04,26,17,48,11.30
2022,04,26,17,49,11.30
2022,04,26,17,50,11.30
2022,04,26,17,51,11.20
2022,04,26,17,52,11.10
2022,04,26,17,53,11.00
2022,04,26,17,54,10.90
2022,04,26,17,55,10.90
2022,04,26,17,56,10.90